# Tabular Observed and Forecast Hydrograph Information
#
# Location: Steamboat Creek - Sparks at Cleanwater Way (SCWN2)
#
# File Generation Time: 09/03/2026 at 07:33 AM PDT
# Data Interval: 1 Hour
#
# Most Recent Date & Time of Maximum Observed: 08/29/2026 at 03:00 PM PDT
# Maximum Observed Stage: 4.79 Feet
# Maximum Observed Flow: 24 cfs
#
# Earliest Date & Time of Maximum Forecast: 09/04/2026 at 03:00 AM PDT
# Maximum Forecast Stage: 4.62 Feet
# Maximum Forecast Flow: 16 cfs
#
# OBSERVED
#
# Date & Time (Local) Stage (Feet) Flow (cfs) Trend Observed Status
# ---------------------------------------------------------------------------------
08/29/2026 07 AM PDT 4.78 24 Not Applicable
08/29/2026 08 AM PDT 4.77 23 - Not Applicable
08/29/2026 09 AM PDT 4.77 23 0 Not Applicable
08/29/2026 10 AM PDT 4.77 23 0 Not Applicable
08/29/2026 11 AM PDT 4.77 23 0 Not Applicable
08/29/2026 12 PM PDT 4.78 24 + Not Applicable
08/29/2026 01 PM PDT 4.78 24 0 Not Applicable
08/29/2026 02 PM PDT 4.78 24 0 Not Applicable
08/29/2026 03 PM PDT 4.79 24 + Not Applicable
08/29/2026 04 PM PDT 4.78 24 - Not Applicable
08/29/2026 05 PM PDT 4.78 24 0 Not Applicable
08/29/2026 06 PM PDT 4.78 24 0 Not Applicable
08/29/2026 07 PM PDT 4.77 23 - Not Applicable
08/29/2026 08 PM PDT 4.76 23 - Not Applicable
08/29/2026 09 PM PDT 4.75 22 - Not Applicable
08/29/2026 10 PM PDT 4.75 22 0 Not Applicable
08/29/2026 11 PM PDT 4.74 22 - Not Applicable
08/30/2026 12 AM PDT 4.73 21 - Not Applicable
08/30/2026 01 AM PDT 4.72 21 - Not Applicable
08/30/2026 02 AM PDT 4.71 20 - Not Applicable
08/30/2026 03 AM PDT 4.71 20 0 Not Applicable
08/30/2026 04 AM PDT 4.70 20 - Not Applicable
08/30/2026 05 AM PDT 4.68 19 - Not Applicable
08/30/2026 06 AM PDT 4.67 19 - Not Applicable
08/30/2026 07 AM PDT 4.67 19 0 Not Applicable
08/30/2026 08 AM PDT 4.68 19 + Not Applicable
08/30/2026 09 AM PDT 4.69 20 + Not Applicable
08/30/2026 10 AM PDT 4.70 20 + Not Applicable
08/30/2026 11 AM PDT 4.71 20 + Not Applicable
08/30/2026 12 PM PDT 4.72 21 + Not Applicable
08/30/2026 01 PM PDT 4.72 21 0 Not Applicable
08/30/2026 02 PM PDT 4.72 21 0 Not Applicable
08/30/2026 03 PM PDT 4.73 21 + Not Applicable
08/30/2026 04 PM PDT 4.72 21 - Not Applicable
08/30/2026 05 PM PDT 4.73 21 + Not Applicable
08/30/2026 06 PM PDT 4.73 21 0 Not Applicable
08/30/2026 07 PM PDT 4.72 21 - Not Applicable
08/30/2026 08 PM PDT 4.71 20 - Not Applicable
08/30/2026 09 PM PDT 4.71 20 0 Not Applicable
08/30/2026 10 PM PDT 4.71 20 0 Not Applicable
08/30/2026 11 PM PDT 4.70 20 - Not Applicable
08/31/2026 12 AM PDT 4.69 20 - Not Applicable
08/31/2026 01 AM PDT 4.68 19 - Not Applicable
08/31/2026 02 AM PDT 4.69 20 + Not Applicable
08/31/2026 03 AM PDT 4.66 18 - Not Applicable
08/31/2026 04 AM PDT 4.65 18 - Not Applicable
08/31/2026 05 AM PDT 4.63 17 - Not Applicable
08/31/2026 06 AM PDT 4.62 16 - Not Applicable
08/31/2026 07 AM PDT 4.62 16 0 Not Applicable
08/31/2026 08 AM PDT 4.62 16 0 Not Applicable
08/31/2026 09 AM PDT 4.61 16 - Not Applicable
08/31/2026 10 AM PDT 4.61 16 0 Not Applicable
08/31/2026 11 AM PDT 4.62 16 + Not Applicable
08/31/2026 12 PM PDT 4.62 16 0 Not Applicable
08/31/2026 01 PM PDT 4.61 16 - Not Applicable
08/31/2026 02 PM PDT 4.62 16 + Not Applicable
08/31/2026 03 PM PDT 4.64 17 + Not Applicable
08/31/2026 04 PM PDT 4.63 17 - Not Applicable
08/31/2026 05 PM PDT 4.64 17 + Not Applicable
08/31/2026 06 PM PDT 4.63 17 - Not Applicable
08/31/2026 07 PM PDT 4.63 17 0 Not Applicable
08/31/2026 08 PM PDT 4.63 17 0 Not Applicable
08/31/2026 09 PM PDT 4.62 16 - Not Applicable
08/31/2026 10 PM PDT 4.62 16 0 Not Applicable
08/31/2026 11 PM PDT 4.61 16 - Not Applicable
09/01/2026 12 AM PDT 4.60 16 - Not Applicable
09/01/2026 01 AM PDT 4.60 16 0 Not Applicable
09/01/2026 02 AM PDT 4.59 15 - Not Applicable
09/01/2026 03 AM PDT 4.58 15 - Not Applicable
09/01/2026 04 AM PDT 4.57 14 - Not Applicable
09/01/2026 05 AM PDT 4.56 14 - Not Applicable
09/01/2026 06 AM PDT 4.55 14 - Not Applicable
09/01/2026 07 AM PDT 4.55 14 0 Not Applicable
09/01/2026 08 AM PDT 4.55 14 0 Not Applicable
09/01/2026 09 AM PDT 4.55 14 0 Not Applicable
09/01/2026 10 AM PDT 4.55 14 0 Not Applicable
09/01/2026 11 AM PDT 4.56 14 + Not Applicable
09/01/2026 12 PM PDT 4.57 14 + Not Applicable
09/01/2026 01 PM PDT 4.58 15 + Not Applicable
09/01/2026 02 PM PDT 4.59 15 + Not Applicable
09/01/2026 03 PM PDT 4.59 15 0 Not Applicable
09/01/2026 04 PM PDT 4.61 16 + Not Applicable
09/01/2026 05 PM PDT 4.62 16 + Not Applicable
09/01/2026 06 PM PDT 4.62 16 0 Not Applicable
09/01/2026 07 PM PDT 4.64 17 + Not Applicable
09/01/2026 08 PM PDT 4.65 18 + Not Applicable
09/01/2026 09 PM PDT 4.64 17 - Not Applicable
09/01/2026 10 PM PDT 4.63 17 - Not Applicable
09/01/2026 11 PM PDT 4.63 17 0 Not Applicable
09/02/2026 12 AM PDT 4.62 16 - Not Applicable
09/02/2026 01 AM PDT 4.62 16 0 Not Applicable
09/02/2026 02 AM PDT 4.62 16 0 Not Applicable
09/02/2026 03 AM PDT 4.61 16 - Not Applicable
09/02/2026 04 AM PDT 4.61 16 0 Not Applicable
09/02/2026 05 AM PDT 4.60 16 - Not Applicable
09/02/2026 06 AM PDT 4.60 16 0 Not Applicable
09/02/2026 07 AM PDT 4.59 15 - Not Applicable
09/02/2026 08 AM PDT 4.59 15 0 Not Applicable
09/02/2026 09 AM PDT 4.59 15 0 Not Applicable
09/02/2026 10 AM PDT 4.59 15 0 Not Applicable
09/02/2026 11 AM PDT 4.59 15 0 Not Applicable
09/02/2026 12 PM PDT 4.60 16 + Not Applicable
09/02/2026 01 PM PDT 4.61 16 + Not Applicable
09/02/2026 02 PM PDT 4.62 16 + Not Applicable
09/02/2026 03 PM PDT 4.63 17 + Not Applicable
09/02/2026 04 PM PDT 4.64 17 + Not Applicable
09/02/2026 05 PM PDT 4.64 17 0 Not Applicable
09/02/2026 06 PM PDT 4.64 17 0 Not Applicable
09/02/2026 07 PM PDT 4.64 17 0 Not Applicable
09/02/2026 08 PM PDT 4.65 18 + Not Applicable
09/02/2026 09 PM PDT 4.65 18 0 Not Applicable
09/02/2026 10 PM PDT 4.65 18 0 Not Applicable
09/02/2026 11 PM PDT 4.65 18 0 Not Applicable
09/03/2026 12 AM PDT 4.64 17 - Not Applicable
09/03/2026 01 AM PDT 4.64 17 0 Not Applicable
09/03/2026 02 AM PDT 4.64 17 0 Not Applicable
09/03/2026 03 AM PDT 4.62 16 - Not Applicable
09/03/2026 04 AM PDT 4.62 16 0 Not Applicable
09/03/2026 05 AM PDT 4.62 16 0 Not Applicable
09/03/2026 06 AM PDT 4.61 16 - Not Applicable
09/03/2026 07 AM PDT 4.61 16 0 Not Applicable
#
# FORECAST
#
# Date & Time (Local) Stage (Feet) Flow (cfs) Trend Forecast Status
# ---------------------------------------------------------------------------------
09/03/2026 08 AM PDT 4.61 16 Not Applicable
09/03/2026 09 AM PDT 4.61 16 0 Not Applicable
09/03/2026 10 AM PDT 4.61 16 0 Not Applicable
09/03/2026 11 AM PDT 4.61 16 0 Not Applicable
09/03/2026 12 PM PDT 4.61 16 0 Not Applicable
09/03/2026 01 PM PDT 4.61 16 0 Not Applicable
09/03/2026 02 PM PDT 4.61 16 0 Not Applicable
09/03/2026 03 PM PDT 4.61 16 0 Not Applicable
09/03/2026 04 PM PDT 4.61 16 0 Not Applicable
09/03/2026 05 PM PDT 4.61 16 0 Not Applicable
09/03/2026 06 PM PDT 4.61 16 0 Not Applicable
09/03/2026 07 PM PDT 4.61 16 0 Not Applicable
09/03/2026 08 PM PDT 4.61 16 0 Not Applicable
09/03/2026 09 PM PDT 4.61 16 0 Not Applicable
09/03/2026 10 PM PDT 4.61 16 0 Not Applicable
09/03/2026 11 PM PDT 4.61 16 0 Not Applicable
09/04/2026 12 AM PDT 4.61 16 0 Not Applicable
09/04/2026 01 AM PDT 4.61 16 0 Not Applicable
09/04/2026 02 AM PDT 4.61 16 0 Not Applicable
09/04/2026 03 AM PDT 4.62 16 + Not Applicable
09/04/2026 04 AM PDT 4.62 16 0 Not Applicable
09/04/2026 05 AM PDT 4.62 16 0 Not Applicable
09/04/2026 06 AM PDT 4.62 16 0 Not Applicable
09/04/2026 07 AM PDT 4.62 16 0 Not Applicable
09/04/2026 08 AM PDT 4.62 16 0 Not Applicable
09/04/2026 09 AM PDT 4.62 16 0 Not Applicable
09/04/2026 10 AM PDT 4.62 16 0 Not Applicable
09/04/2026 11 AM PDT 4.62 16 0 Not Applicable
09/04/2026 12 PM PDT 4.62 16 0 Not Applicable
09/04/2026 01 PM PDT 4.62 16 0 Not Applicable
09/04/2026 02 PM PDT 4.62 16 0 Not Applicable
09/04/2026 03 PM PDT 4.62 16 0 Not Applicable
09/04/2026 04 PM PDT 4.62 16 0 Not Applicable
09/04/2026 05 PM PDT 4.62 16 0 Not Applicable
09/04/2026 06 PM PDT 4.62 16 0 Not Applicable
09/04/2026 07 PM PDT 4.62 16 0 Not Applicable
09/04/2026 08 PM PDT 4.62 16 0 Not Applicable
09/04/2026 09 PM PDT 4.61 16 - Not Applicable
09/04/2026 10 PM PDT 4.61 16 0 Not Applicable
09/04/2026 11 PM PDT 4.61 16 0 Not Applicable
09/05/2026 12 AM PDT 4.61 16 0 Not Applicable
09/05/2026 01 AM PDT 4.61 16 0 Not Applicable
09/05/2026 02 AM PDT 4.61 16 0 Not Applicable
09/05/2026 03 AM PDT 4.61 16 0 Not Applicable
09/05/2026 04 AM PDT 4.61 16 0 Not Applicable
09/05/2026 05 AM PDT 4.61 16 0 Not Applicable
09/05/2026 06 AM PDT 4.61 16 0 Not Applicable
09/05/2026 07 AM PDT 4.61 16 0 Not Applicable
09/05/2026 08 AM PDT 4.61 16 0 Not Applicable
09/05/2026 09 AM PDT 4.61 16 0 Not Applicable
09/05/2026 10 AM PDT 4.61 16 0 Not Applicable
09/05/2026 11 AM PDT 4.61 16 0 Not Applicable
09/05/2026 12 PM PDT 4.61 16 0 Not Applicable
09/05/2026 01 PM PDT 4.61 16 0 Not Applicable
09/05/2026 02 PM PDT 4.61 16 0 Not Applicable
09/05/2026 03 PM PDT 4.61 16 0 Not Applicable
09/05/2026 04 PM PDT 4.61 16 0 Not Applicable
09/05/2026 05 PM PDT 4.61 16 0 Not Applicable
09/05/2026 06 PM PDT 4.61 16 0 Not Applicable
09/05/2026 07 PM PDT 4.61 16 0 Not Applicable
09/05/2026 08 PM PDT 4.61 16 0 Not Applicable
09/05/2026 09 PM PDT 4.61 16 0 Not Applicable
09/05/2026 10 PM PDT 4.61 16 0 Not Applicable
09/05/2026 11 PM PDT 4.61 16 0 Not Applicable
09/06/2026 12 AM PDT 4.61 16 0 Not Applicable
09/06/2026 01 AM PDT 4.60 16 - Not Applicable
09/06/2026 02 AM PDT 4.60 16 0 Not Applicable
09/06/2026 03 AM PDT 4.60 16 0 Not Applicable
09/06/2026 04 AM PDT 4.60 16 0 Not Applicable
09/06/2026 05 AM PDT 4.60 16 0 Not Applicable
09/06/2026 06 AM PDT 4.60 16 0 Not Applicable
09/06/2026 07 AM PDT 4.60 16 0 Not Applicable
09/06/2026 08 AM PDT 4.60 16 0 Not Applicable
09/06/2026 09 AM PDT 4.60 16 0 Not Applicable
09/06/2026 10 AM PDT 4.60 16 0 Not Applicable
09/06/2026 11 AM PDT 4.60 16 0 Not Applicable
09/06/2026 12 PM PDT 4.60 16 0 Not Applicable
09/06/2026 01 PM PDT 4.60 16 0 Not Applicable
09/06/2026 02 PM PDT 4.60 16 0 Not Applicable
09/06/2026 03 PM PDT 4.60 16 0 Not Applicable
09/06/2026 04 PM PDT 4.60 16 0 Not Applicable
09/06/2026 05 PM PDT 4.60 16 0 Not Applicable
09/06/2026 06 PM PDT 4.60 16 0 Not Applicable
09/06/2026 07 PM PDT 4.60 16 0 Not Applicable
09/06/2026 08 PM PDT 4.60 16 0 Not Applicable
09/06/2026 09 PM PDT 4.60 16 0 Not Applicable
09/06/2026 10 PM PDT 4.60 16 0 Not Applicable
09/06/2026 11 PM PDT 4.60 16 0 Not Applicable
09/07/2026 12 AM PDT 4.60 16 0 Not Applicable
09/07/2026 01 AM PDT 4.60 16 0 Not Applicable
09/07/2026 02 AM PDT 4.60 16 0 Not Applicable
09/07/2026 03 AM PDT 4.60 16 0 Not Applicable
09/07/2026 04 AM PDT 4.60 16 0 Not Applicable
09/07/2026 05 AM PDT 4.60 16 0 Not Applicable
09/07/2026 06 AM PDT 4.60 16 0 Not Applicable
09/07/2026 07 AM PDT 4.60 16 0 Not Applicable
09/07/2026 08 AM PDT 4.60 16 0 Not Applicable
09/07/2026 09 AM PDT 4.60 16 0 Not Applicable
09/07/2026 10 AM PDT 4.60 16 0 Not Applicable
09/07/2026 11 AM PDT 4.60 16 0 Not Applicable
09/07/2026 12 PM PDT 4.60 16 0 Not Applicable
09/07/2026 01 PM PDT 4.60 16 0 Not Applicable
09/07/2026 02 PM PDT 4.60 16 0 Not Applicable
09/07/2026 03 PM PDT 4.60 16 0 Not Applicable
09/07/2026 04 PM PDT 4.60 16 0 Not Applicable
09/07/2026 05 PM PDT 4.60 16 0 Not Applicable
09/07/2026 06 PM PDT 4.60 16 0 Not Applicable
09/07/2026 07 PM PDT 4.60 16 0 Not Applicable
09/07/2026 08 PM PDT 4.60 16 0 Not Applicable
09/07/2026 09 PM PDT 4.60 16 0 Not Applicable
09/07/2026 10 PM PDT 4.60 16 0 Not Applicable
09/07/2026 11 PM PDT 4.60 16 0 Not Applicable
09/08/2026 12 AM PDT 4.60 16 0 Not Applicable
09/08/2026 01 AM PDT 4.59 15 - Not Applicable
09/08/2026 02 AM PDT 4.59 15 0 Not Applicable
09/08/2026 03 AM PDT 4.59 15 0 Not Applicable
09/08/2026 04 AM PDT 4.59 15 0 Not Applicable
09/08/2026 05 AM PDT 4.59 15 0 Not Applicable
#
# NOTE 1: Stages are rounded to the nearest hundredth (.01) of a foot.
# NOTE 2: Flows are rounded to the nearest (1) cfs.
# NOTE 3: Trends are determined using hourly change in unrounded stage and flow.
# NOTE 4: Maximum Values are determined using unrounded stage and flow.
|